Simultaneous Nadir Overpasses (SNOs) Predictions

Prediction of SNOs between AQUA and NOAA-19 Satellite Orbit:

Table of predicted SNOs for the next 14.0 days since TLE Epoch: 5/28/2022
Index Date (AQUA) Time (AQUA) Lat,Lon (AQUA) SZA (AQUA ) Date (NOAA-19) Time (NOAA-19) Lat,Lon (NOAA-19) SZA (NOAA-19 ) Distance(km) Time Diff (sec)
1 05/30/2022 03:07:21 -77.33, -62.13 124.04 05/30/2022 03:06:15 -77.25, -65.21 123.87 75.71 66
2 05/30/2022 03:56:55 77.66, 104.13 56.36 05/30/2022 03:57:07 77.68, 104.18 56.38 2.93 12
3 06/01/2022 09:30:15 -77.64,-159.12 123.97 06/01/2022 09:30:01 -77.66,-159.07 123.95 2.96 14
4 06/01/2022 10:19:49 77.97, 7.06 56.44 06/01/2022 10:20:55 78.02, 10.11 56.27 70.70 66
5 06/03/2022 15:03:36 77.65, -62.47 55.76 06/03/2022 15:03:01 77.65, -62.31 55.76 3.86 35
6 06/03/2022 15:53:02 -77.66, 105.13 124.24 06/03/2022 15:53:57 -77.67, 105.05 124.23 2.23 55
7 06/05/2022 20:36:55 -77.62, 34.33 124.53 06/05/2022 20:35:54 -77.63, 34.45 124.50 3.23 61
8 06/05/2022 21:26:22 77.64,-158.13 55.50 06/05/2022 21:26:57 77.66,-158.16 55.52 2.36 35
9 06/08/2022 02:10:10 77.39, 131.93 54.99 06/08/2022 02:09:02 77.31, 129.66 55.09 56.27 68
10 06/08/2022 02:59:41 -77.63, -61.40 124.73 06/08/2022 02:59:50 -77.62, -61.49 124.73 2.16 9
11 06/10/2022 08:33:00 77.61, 35.37 55.07 06/10/2022 08:32:50 77.62, 35.34 55.09 1.85 10



Historial Predications of SNOs between AQUA and NOAA-19
